Location: Brabourne
(51.1333°N, 1.0000°E)
Time: 22:51:04
(UTC+00:00)

YAOGAN 11 - Pass Details

Date: 20 June 2021
Orbit: 613 x 668 km, 98.3° (Epoch: 02 August)

Event Time Altitude Azimuth Distance (km) Brightness Sun altitude
Exits shadow 00:35:36 18° 152° (SSE) 1,561 5.7 -15.0°
Maximum altitude 00:38:49 69° 71° (ENE) 699 4.4 -14.9°
Drops below altitude 10° 00:43:20 10° 349° (N) 2,080 7.9 -14.8°
Sets 00:45:35 0° 348° (NNW) 3,004 8.9 -14.7°
